Regional Weather Roundup
Issued by NWS Sterling, VA

Home | Current Version | Previous Version | Graphics & Text | Print | Product List | Glossary On
Versions: 1 2 3 4 5 6 7 8 9 10 11 12 13 14 15 16 17 18 19 20 21 22 23 24 25 26 27 28 29 30 31 32 33 34 35 36 37 38 39 40 41 42 43 44 45 46 47 48 49 50
469
ASUS41 KLWX 101611
RWRLWX

REGIONAL WEATHER ROUNDUP
NATIONAL WEATHER SERVICE BALTIMORE MD/WASHINGTON DC
1100 AM EST SAT DEC 10 2016

Note: "FAIR" indicates few or no clouds below 12,000 feet
with no significant weather and/or obstructions to visibility.
 TC=TEMPERATURE CELSIUS

 * =Non NWS site. Station does not report precipitation (e.g. rain,
    snow, etc.), thunder, or fog.

DCZ001-MDZ009-015-VAZ040>042-051-053>054-101700-
WASHINGTON METRO

CITY           SKY/WX    TMP DP  RH WIND       PRES   REMARKS
WASHINGTON NAT MOSUNNY   36  14  40 NW14G22   30.51F WCI  27
DULLES         MOSUNNY   34  11  38 NW14      30.49F WCI  25
ANDREWS AFB    SUNNY     35  12  39 NW15      30.47F WCI  25
QUANTICO       SUNNY     36  15  42 NW10      30.52F WCI  28
COLLEGE PARK*  SUNNY     34  14  44 W9        30.49F WCI  26
LEESBURG*      SUNNY     36  19  51 NW18G29   30.49F WCI  25
MANASSAS*      SUNNY    N/A N/A N/A N12       30.52
GAITHERSBURG*  SUNNY     32  12  43 NW10G18   30.51F WCI  24

$$

MDZ006>007-011-014-101700-
BALTIMORE METRO

CITY           SKY/WX    TMP DP  RH WIND       PRES   REMARKS
BWI AIRPORT    MOSUNNY   35  17  47 W13       30.47F WCI  26
MD SCIENCE CTR   N/A     35  13  40 MISG      30.48F
MARTIN STATE   SUNNY     36  18  48 W9        30.49F WCI  29
ANNAPOLIS      SUNNY     36  15  42 W12       30.49F WCI  28
FORT MEADE*    SUNNY     34  18  51 W9G16     30.50F WCI  26

$$

MDZ012-015-019>023-101700-
MARYLAND EASTERN SHORE

CITY           SKY/WX    TMP DP  RH WIND       PRES   REMARKS
OCEAN CITY     SUNNY     36  20  52 NW10      30.48F WCI  28
SALISBURY      SUNNY     36  19  50 NW9       30.48F WCI  29
BAY BRIDGE AP* SUNNY     36  18  48 NW9       30.49S WCI  29
CAMBRIDGE*     SUNNY     34  19  55 NW10      30.49F WCI  26
EASTON*        SUNNY     37  18  44 NW8       30.52F

$$

MDZ017>025-101700-
SOUTHERN MARYLAND

CITY           SKY/WX    TMP DP  RH WIND       PRES   REMARKS
PATUXENT RIVER SUNNY     35  17  47 NW12      30.50F WCI  27
ST INIGOES     SUNNY     36  16  44 W7        30.50F
LEONARDTOWN*     N/A     34  16  47 W9        30.51F WCI  26

$$

MDZ003>005-101700-
NORTH CENTRAL MARYLAND

CITY           SKY/WX    TMP DP  RH WIND       PRES   REMARKS
FREDERICK*     SUNNY     34  18  51 NW12G23   30.51F WCI  25
HAGERSTOWN APT MOSUNNY   30  10  43 NW14G24   30.46F WCI  19
WESTMINSTER*     N/A     28  14  54 NW9G21    30.44F WCI  20

$$

MDZ501>502-101700-
WESTERN MARYLAND

CITY           SKY/WX    TMP DP  RH WIND       PRES   REMARKS
OAKLAND*       CLOUDY    16  10  79 W6G16     30.33S
CUMBERLAND*    NOT AVBL

$$

VAZ025>031-101700-
SHENANDOAH VALLEY

CITY           SKY/WX    TMP DP  RH WIND       PRES   REMARKS
WINCHESTER*    PTSUNNY   28  12  50 NW15G21   30.48S WCI  17
FRONT ROYAL*   FAIR      32  12  43 W5        30.48S
LURAY*         FAIR      32  18  55 N3        30.48F
NEW MARKET*    FAIR      29  10  44 SW5       30.48F
STAUNTON*      SUNNY     27  11  51 SW5       30.49F
WAYNESBORO*    FAIR      27  10  49 SW7       30.46F

$$

WVZ021-048>050-054>055-101700-
EASTERN WEST VIRGINIA PANHANDLE

CITY           SKY/WX    TMP DP  RH WIND       PRES   REMARKS
MARTINSBURG    PTSUNNY   32  12  43 W15G22    30.48F WCI  22
PETERSBURG*    PTSUNNY   31  13  48 W12       30.50S WCI  21

$$

VAZ036>039-050-101700-
CENTRAL FOOTHILLS

CITY           SKY/WX    TMP DP  RH WIND       PRES   REMARKS
CHARLOTTESVILL SUNNY     34  11  38 VRB6      30.50F
CULPEPER*      SUNNY     36  14  40 W8        30.52F
ORANGE*          N/A     34  12  40 CALM      30.52F
GORDONSVILLE*  FAIR      33  12  41 CALM      30.51S
WARRENTON*     FAIR      37   6  27 NW6       30.50F

$$

VAZ055>057-101700-
NORTH AND CENTRAL PIEDMONT

CITY           SKY/WX    TMP DP  RH WIND       PRES   REMARKS
FREDERICKSBRG* SUNNY     35  17  46 NW8       30.52F WCI  29
STAFFORD*      SUNNY     33  14  44 NW8       30.55F WCI  27

$$

NCZ024-NYZ072-PAZ021-071-VAZ022-071-101700-
OTHER REGIONAL OBSERVATIONS

CITY           SKY/WX    TMP DP  RH WIND       PRES   REMARKS
NEW YORK CITY  PTSUNNY   33  20  58 NW9G16    30.40F WCI  25
PHILADELPHIA   MOSUNNY   35  16  45 NW15      30.44F WCI  25
PITTSBURGH     FLURRIES  26  16  65 W14G20    30.45S WCI  14
ROANOKE        SUNNY     31  12  45 W8        30.52F WCI  23
RICHMOND       MOSUNNY   36  14  40 NW7       30.53F
RALEIGH        SUNNY     35  15  44 VRB3      30.56F

$$

ANZ530>537-101700-
MARINE OBSERVATIONS

STATION/POSITION TIME  TEMP    WIND        PRES
                       AIR SEA DIR/SP/G
                 (UTC) (F)     (DEG/KT/KT) (MB)
THOMAS PT LIGHT  1600   34 45  300/ 14/ 16   N/A
BALT KEY BRIDGE  1548   33     280/ 12/ 14 1032.1F
COVE POINT       1548   33     350/  4/  8 1033.4F
LEWISETTA        1548   35 42  360/  8/ 11 1033.0F
SOLOMONS ISLAND  1548   34 47  310/  8/ 15   N/A
PINEY POINT      1548          330/ 11/ 15   N/A

$$





USA.gov is the U.S. government's official web portal to all federal, state and local government web resources and services.